TIANYAN 23

导读

TIANYAN 23(天雁23星)是中国研制运营的遥感卫星,于2025年3月15日,在酒泉卫星发射中心通过长征二号丁运载火箭,同四维高景三号02星一同成功发射入轨。该卫星由北京天链测控技术有限公司建设运营,主要承担地物遥感任务,负责获取高分辨率地面图像,支撑我国自然资源大数据体系建设,服务多领域空间信息应用需求。

Basic Information
目录编号:
63209
目录名称:
TIANYAN 23
国际标识:
2025-051B
轨道中心:
EARTH
卫星名称:
TIANYAN 23
卫星全名:
TIANYAN 23
卫星状态:
在轨 (已飞行539 天)
发射日期:
2025-03-15 UTC
国别 :
中国 (CN)
星等 :
--
Orbit Information
数据来源 国际轨道数据
星历时间: 2026-09-05T13:42:46+0800
4小时前
查看轨道信息
半长轴: 6783.922km
偏心率: 0.0005735
轨道倾角: 97.449°
近地点辐角 148.974°
升交点赤经 338.290°
平近点角 211.185°
近地点: 401.894km
远地点: 409.676km
周期: 92.679分钟
每日圈数: 15.537513
Detailed Information
使用方式:
暂无
2D Orbit Map
3D Orbit Map
Orbit Altitude Analysis Chart
Orbit Inclination Analysis Chart
Orbit Comprehensive Analysis Chart
View Comprehensive Chart
Conjunction Data List
Event ID Objects TCA Miss Dist (km) Collision Risk Probability Collision Risk Index (CRI) Action
CDM_260906-212803-128106-320921
2026-09-06T
21:28:43+0000
1.704 km
极远距离
3.498049E-6 低风险 0.46